Wind_Speed
20 20 20 20 19 18 17 17 17 17 16 15 15 15 16 17 16 16 16 15 15 15 15 15 15 15 15 15 15 16 16 16 16 17 17 18 18 17 17 17 17 18 18
20 20 20 19 19 18 18 18 18 17 17 17 17 17 18 18 17 17 16 15 15 14 15 15 15 14 14 15 15 15 16 16 16 16 17 17 17 17 18 18 18 18 19
20 20 19 19 19 18 18 19 19 19 18 18 18 18 18 18 17 17 16 15 15 15 15 15 14 14 14 14 15 15 15 15 16 16 17 17 17 18 18 19 18 19 19
20 20 19 18 19 19 18 19 19 19 18 18 18 19 18 17 17 16 15 15 15 15 15 15 15 14 14 14 14 15 15 15 16 17 18 17 18 19 19 20 20 20 20
21 20 19 19 18 18 19 19 19 19 19 19 19 20 19 17 17 16 15 15 16 16 16 15 14 14 14 14 15 15 15 16 17 18 18 18 18 19 20 20 21 21 21
21 21 20 19 19 19 19 19 19 19 19 19 19 20 18 18 16 16 16 16 15 15 14 15 15 14 15 15 15 16 16 17 18 18 18 19 19 20 21 21 21 22 21
21 21 20 20 20 19 19 20 20 20 20 20 20 19 18 17 17 17 16 16 15 15 15 15 15 15 15 15 16 17 18 18 18 19 19 19 20 21 22 22 22 22 22
22 22 21 20 20 20 21 21 21 21 21 21 20 19 19 18 18 17 17 15 15 15 15 15 15 15 16 16 17 18 19 19 19 19 20 21 22 22 23 23 23 23 23
22 22 22 21 21 21 22 22 22 21 21 21 20 20 20 19 18 18 17 16 16 16 16 16 16 16 17 17 18 19 20 20 20 21 21 22 23 23 23 23 23 24 24
23 22 22 22 22 22 22 22 21 21 20 21 21 20 19 19 19 19 19 18 18 18 17 17 17 17 17 18 19 20 21 21 21 21 22 22 23 23 24 24 24 24 24
23 23 22 22 21 21 21 21 21 21 20 20 20 19 19 19 20 20 20 19 19 19 19 18 18 18 19 19 20 21 22 22 22 23 23 23 23 24 24 24 24 24 24
23 22 22 22 21 21 21 20 20 20 20 20 20 19 20 20 20 20 20 20 20 20 20 20 20 20 21 21 22 23 23 23 23 24 25 25 25 25 25 25 25 25 25
23 22 21 21 21 20 20 19 20 20 20 19 20 20 20 21 20 21 21 21 21 21 21 21 21 22 22 23 24 25 25 25 25 25 25 25 26 26 26 26 26 26 26
23 23 22 22 21 20 20 20 20 20 20 20 20 20 20 21 21 21 22 22 22 22 22 22 22 23 23 24 25 26 26 26 26 25 25 25 26 26 26 26 25 25 25
23 23 23 23 22 21 21 21 21 21 21 21 21 21 20 20 20 21 22 22 22 23 23 23 24 24 24 25 25 25 25 25 25 25 25 25 25 25 24 24 25 25 25
23 23 23 23 23 22 22 21 21 22 22 22 22 22 22 22 22 22 23 23 24 24 24 25 25 25 25 25 25 25 25 25 25 25 25 25 25 25 25 25 25 25 26
22 22 23 22 22 22 22 22 21 22 22 23 23 22 22 23 23 23 24 24 25 25 26 26 26 26 26 25 25 25 25 25 25 25 25 25 25 25 26 26 26 25 25
22 22 22 23 22 22 22 22 22 22 22 23 22 22 22 22 23 24 24 25 25 25 25 25 25 25 26 26 26 27 26 26 26 26 26 26 26 26 26 26 26 25 25
22 21 22 22 22 21 21 21 21 22 22 23 22 22 23 24 25 25 25 25 25 25 25 26 26 26 26 26 26 27 27 26 26 27 26 26 25 25 26 25 25 24 24
23 23 23 23 23 23 23 22 22 22 22 23 23 24 25 25 26 27 26 26 26 27 27 27 27 26 26 26 26 26 26 27 27 27 26 26 25 25 25 25 25 25 24
24 23 24 24 23 23 23 23 23 23 23 23 23 25 26 26 27 28 27 28 28 28 28 28 27 27 27 27 27 27 27 27 27 26 26 25 25 25 25 25 25 25 24
24 25 24 24 25 25 24 24 24 24 25 25 25 25 26 26 26 27 28 28 28 28 28 28 28 27 27 27 28 27 27 27 26 26 25 25 25 25 26 26 26 25 24
24 24 24 25 25 26 25 25 25 26 26 26 26 27 27 27 27 27 28 28 28 28 28 28 28 27 27 27 27 27 26 26 26 26 26 26 26 26 26 26 25 24 24
24 25 25 25 26 26 25 25 25 25 25 25 26 27 28 28 28 28 27 27 28 28 28 28 28 28 28 28 27 27 27 27 27 28 28 27 27 27 26 25 24 24 25
25 26 25 26 26 25 24 24 24 25 26 26 27 27 27 28 28 28 29 29 29 28 28 28 28 28 28 28 27 27 28 28 29 29 28 27 27 27 27 26 25 24 24
25 25 25 25 24 23 23 23 24 26 27 27 27 28 27 28 28 29 29 29 29 29 29 28 28 28 28 27 27 28 28 29 29 29 28 27 27 27 27 26 25 24 24
Wind_Direction
287 290 294 295 297 297 298 301 304 305 304 303 301 301 301 300 300 302 300 296 292 289 288 286 282 281 282 282 283 280 280 281 281 282 283 285 286 289 290 291 291 291 289
286 290 292 293 293 296 297 297 300 301 299 299 300 300 301 301 298 299 298 295 293 289 288 285 283 284 283 284 286 286 285 285 286 286 286 286 287 288 290 292 292 291 290
284 287 291 293 293 293 294 294 296 297 297 297 296 297 299 299 298 297 293 292 290 289 288 286 288 288 289 288 289 290 289 287 289 289 290 288 288 289 289 291 292 292 292
284 286 288 290 293 292 291 292 294 294 295 296 296 298 297 296 295 297 294 291 289 287 286 286 288 290 291 290 291 290 290 290 290 291 291 290 290 290 291 291 292 292 292
282 284 287 287 290 292 292 292 293 294 294 294 293 296 295 292 293 293 295 291 287 285 285 286 287 287 287 289 292 291 290 293 293 292 293 292 292 292 292 292 292 293 292
279 281 282 285 288 290 290 291 291 292 294 293 292 294 293 291 291 292 294 293 290 287 286 285 286 288 288 288 291 292 293 294 295 295 294 293 293 293 294 294 294 293 292
276 279 281 281 285 286 287 289 290 292 294 292 291 292 291 288 288 290 293 292 290 290 288 286 286 287 288 289 291 292 294 295 295 295 295 295 294 293 294 294 294 294 293
275 277 281 281 283 284 286 289 290 292 291 290 289 289 289 287 285 286 288 288 289 291 289 287 288 288 289 291 293 295 295 294 293 294 293 294 295 295 296 295 294 292 292
274 276 279 281 282 282 284 287 288 289 288 288 286 286 286 285 283 283 283 284 286 287 288 287 287 287 289 291 293 295 297 295 292 291 292 293 294 294 295 294 294 292 291
276 277 278 280 281 281 284 284 286 288 287 287 287 285 284 282 281 281 282 284 285 285 285 286 288 289 291 292 293 295 295 294 293 293 292 293 293 292 292 292 292 292 292
278 279 279 277 278 280 282 282 284 286 287 286 284 283 283 283 283 283 282 282 284 285 285 285 287 289 292 293 294 295 295 293 292 292 293 292 293 293 292 291 292 292 293
276 277 277 277 276 278 279 280 283 286 286 285 284 283 283 283 283 283 283 282 283 284 283 284 287 289 291 294 294 295 294 293 293 294 294 292 292 292 293 292 291 291 291
271 273 275 275 275 275 277 279 282 284 285 284 284 284 285 284 282 282 282 282 282 284 285 286 287 289 291 293 294 295 294 294 294 294 294 293 293 293 293 292 291 291 292
267 269 270 272 274 274 275 277 279 282 283 284 284 284 285 285 284 283 282 281 282 285 285 286 287 290 291 291 293 294 295 295 295 295 293 294 295 294 294 293 292 293 292
263 266 269 270 272 274 274 275 276 279 281 283 284 283 284 284 284 285 284 283 285 287 287 286 287 289 290 291 293 295 296 295 294 294 294 295 297 297 297 297 296 294 293
261 264 267 271 271 273 273 274 276 279 280 281 283 283 282 283 284 284 285 286 286 287 288 288 288 288 289 291 293 294 295 294 294 293 293 294 295 296 296 297 296 294 293
261 263 267 270 272 272 272 274 276 279 280 281 283 284 283 284 284 284 284 285 286 286 288 288 289 290 290 291 292 293 293 293 292 293 293 293 293 293 294 295 294 293 292
264 266 270 271 274 274 276 276 276 278 280 283 284 284 284 284 284 284 284 285 287 288 288 289 290 290 290 290 291 291 292 292 293 293 293 292 291 292 293 294 294 293 292
267 270 274 275 276 275 277 278 277 277 279 281 282 284 284 284 284 283 283 285 287 288 288 289 290 289 289 289 290 290 290 292 294 294 293 291 290 291 292 293 293 293 292
269 271 272 274 275 274 275 276 276 277 280 282 282 284 285 284 284 284 285 287 287 287 287 288 288 289 288 288 290 290 290 291 292 293 293 291 290 291 293 293 293 294 292
268 271 271 272 273 275 275 275 278 281 282 283 284 284 284 284 285 286 286 287 287 286 286 286 287 286 285 286 287 288 289 290 291 292 292 292 291 291 292 293 294 294 293
268 271 272 275 276 275 276 276 277 280 283 285 288 287 286 284 285 286 287 288 287 286 286 287 286 285 284 284 285 287 288 289 290 291 291 291 291 291 292 293 294 293 291
268 272 274 275 274 273 274 277 279 280 283 285 287 289 289 287 286 287 286 286 286 286 287 286 284 284 284 284 285 286 286 286 287 289 290 290 291 292 292 293 292 291 290
268 270 273 274 275 276 277 279 280 280 283 286 288 289 289 288 287 286 286 286 286 287 287 286 284 283 283 284 285 284 285 285 286 288 289 289 289 289 290 291 292 291 290
270 271 273 275 276 276 278 279 281 282 282 284 287 289 290 290 289 287 288 288 288 287 287 286 285 284 284 285 285 285 285 285 286 287 287 286 287 287 288 289 290 292 291
268 270 271 272 274 276 279 280 282 283 283 284 286 288 290 291 291 290 289 288 288 288 287 285 284 283 283 284 282 283 283 284 285 285 287 287 286 287 288 288 287 289 290
Height
5849 5848 5847 5847 5846 5845 5844 5844 5843 5842 5841 5840 5838 5837 5836 5835 5834 5834 5832 5831 5831 5830 5829 5829 5828 5828 5828 5828 5828 5828 5827 5827 5828 5828 5827 5826 5825 5825 5824 5822 5821 5820 5819
5845 5844 5843 5842 5842 5841 5840 5840 5839 5838 5837 5836 5835 5834 5833 5832 5831 5830 5829 5828 5827 5826 5826 5825 5825 5825 5825 5824 5824 5824 5823 5823 5824 5823 5823 5822 5821 5820 5819 5818 5817 5815 5814
5841 5840 5839 5838 5837 5837 5836 5836 5835 5834 5833 5832 5831 5830 5829 5828 5826 5825 5825 5824 5824 5823 5822 5821 5821 5821 5821 5821 5820 5820 5820 5819 5819 5819 5819 5818 5817 5816 5815 5813 5812 5811 5809
5836 5835 5834 5833 5833 5832 5831 5831 5831 5830 5829 5828 5827 5826 5825 5824 5823 5822 5821 5820 5820 5819 5819 5819 5818 5818 5818 5817 5817 5816 5816 5815 5815 5814 5814 5813 5812 5811 5810 5808 5807 5806 5804
5832 5831 5830 5829 5828 5827 5827 5827 5827 5826 5825 5824 5823 5822 5821 5820 5819 5818 5817 5817 5816 5816 5815 5815 5815 5814 5814 5814 5813 5813 5812 5811 5810 5809 5809 5808 5807 5806 5805 5803 5802 5800 5798
5827 5827 5825 5825 5824 5824 5824 5823 5822 5821 5821 5820 5819 5818 5817 5816 5815 5814 5814 5813 5813 5812 5812 5811 5811 5811 5811 5810 5810 5809 5808 5807 5806 5805 5804 5803 5802 5800 5799 5797 5796 5795 5793
5822 5822 5821 5821 5821 5820 5819 5819 5818 5817 5816 5815 5814 5814 5813 5812 5812 5811 5810 5810 5809 5808 5808 5808 5807 5807 5807 5806 5806 5805 5804 5802 5802 5801 5799 5798 5796 5795 5793 5792 5790 5788 5787
5817 5817 5816 5815 5816 5815 5815 5814 5813 5812 5811 5810 5810 5809 5808 5808 5808 5807 5807 5806 5805 5805 5805 5804 5804 5803 5803 5802 5801 5800 5799 5798 5796 5795 5794 5792 5791 5789 5787 5786 5784 5782 5781
5811 5811 5811 5811 5810 5810 5809 5808 5807 5806 5806 5805 5804 5804 5804 5803 5803 5803 5802 5802 5802 5801 5801 5800 5800 5799 5798 5797 5796 5795 5794 5792 5791 5789 5788 5786 5785 5783 5781 5779 5777 5776 5774
5806 5805 5805 5805 5805 5804 5804 5803 5802 5801 5800 5800 5799 5799 5799 5799 5798 5798 5798 5798 5797 5797 5796 5796 5795 5794 5793 5792 5791 5790 5788 5786 5785 5783 5782 5780 5779 5777 5775 5773 5771 5769 5767
5800 5799 5799 5799 5799 5799 5798 5797 5796 5796 5795 5794 5794 5794 5794 5794 5793 5793 5793 5793 5792 5792 5791 5791 5790 5789 5788 5787 5786 5784 5782 5780 5779 5777 5775 5774 5772 5770 5768 5766 5764 5762 5760
5794 5794 5794 5793 5793 5793 5792 5792 5791 5790 5790 5789 5789 5789 5789 5789 5788 5787 5787 5787 5786 5786 5786 5785 5784 5783 5782 5781 5780 5778 5776 5774 5772 5770 5769 5767 5765 5763 5760 5758 5756 5754 5752
5788 5788 5787 5787 5787 5787 5787 5786 5786 5786 5785 5785 5784 5784 5784 5783 5783 5782 5782 5781 5781 5780 5779 5779 5778 5777 5775 5774 5773 5771 5769 5767 5766 5764 5761 5759 5757 5755 5753 5750 5748 5747 5745
5782 5782 5782 5782 5782 5781 5781 5781 5781 5781 5780 5780 5779 5779 5778 5777 5777 5776 5776 5776 5775 5774 5773 5772 5771 5770 5768 5767 5766 5764 5762 5760 5758 5756 5754 5751 5749 5746 5744 5742 5740 5738 5737
5776 5776 5776 5776 5776 5776 5776 5776 5776 5775 5775 5774 5774 5773 5772 5771 5771 5770 5769 5769 5768 5767 5766 5765 5764 5763 5761 5760 5758 5756 5754 5752 5750 5748 5746 5744 5742 5739 5737 5734 5732 5731 5729
5769 5770 5770 5770 5770 5770 5770 5770 5770 5770 5769 5769 5768 5767 5766 5766 5765 5764 5763 5762 5761 5760 5759 5758 5757 5755 5754 5752 5751 5749 5747 5745 5743 5741 5739 5737 5735 5732 5730 5728 5726 5723 5721
5763 5764 5764 5765 5765 5765 5765 5764 5764 5764 5763 5763 5762 5761 5760 5759 5758 5757 5756 5755 5754 5753 5752 5750 5749 5747 5746 5744 5742 5741 5739 5737 5735 5733 5731 5729 5727 5725 5723 5721 5719 5717 5714
5757 5758 5758 5759 5759 5759 5758 5758 5758 5758 5757 5756 5756 5755 5754 5753 5752 5751 5750 5748 5747 5745 5744 5742 5741 5739 5738 5736 5734 5732 5731 5729 5727 5725 5723 5721 5719 5717 5715 5713 5711 5709 5707
5751 5752 5752 5752 5752 5752 5752 5752 5752 5751 5751 5750 5749 5749 5748 5746 5745 5744 5742 5741 5740 5738 5736 5734 5733 5732 5730 5728 5726 5724 5723 5721 5719 5717 5715 5714 5712 5710 5708 5706 5704 5702 5700
5745 5745 5745 5745 5745 5745 5745 5745 5745 5745 5744 5743 5743 5742 5741 5739 5738 5737 5735 5733 5732 5730 5729 5727 5725 5723 5722 5720 5718 5716 5714 5713 5711 5709 5708 5706 5704 5702 5700 5698 5697 5695 5693
5738 5738 5738 5738 5739 5739 5739 5738 5738 5738 5737 5736 5736 5735 5733 5732 5730 5729 5727 5726 5724 5722 5720 5718 5717 5715 5713 5711 5710 5708 5706 5705 5703 5701 5700 5698 5696 5695 5693 5691 5689 5688 5686
5731 5731 5731 5731 5731 5731 5731 5731 5731 5730 5730 5729 5728 5727 5725 5724 5723 5721 5719 5717 5715 5713 5711 5710 5708 5706 5704 5703 5701 5699 5698 5697 5695 5694 5692 5690 5689 5687 5685 5684 5682 5680 5679
5723 5724 5724 5724 5724 5723 5723 5723 5723 5723 5722 5721 5720 5719 5718 5716 5715 5713 5711 5709 5707 5705 5703 5701 5699 5697 5696 5694 5692 5691 5690 5688 5687 5686 5684 5683 5681 5680 5678 5676 5674 5673 5672
5716 5716 5717 5717 5716 5715 5715 5715 5715 5714 5714 5713 5712 5711 5710 5708 5706 5705 5703 5701 5699 5697 5695 5692 5690 5689 5687 5686 5684 5683 5681 5680 5679 5678 5676 5675 5673 5672 5670 5668 5667 5665 5664
5708 5709 5709 5709 5708 5708 5708 5707 5707 5706 5706 5705 5704 5703 5701 5700 5698 5696 5694 5692 5690 5688 5686 5684 5682 5680 5678 5677 5675 5674 5673 5672 5670 5669 5668 5666 5665 5664 5662 5661 5659 5658 5656
5701 5701 5701 5701 5701 5700 5700 5700 5700 5699 5698 5697 5696 5695 5693 5691 5689 5687 5685 5683 5681 5679 5677 5675 5674 5672 5670 5668 5667 5666 5665 5663 5662 5660 5659 5658 5657 5655 5654 5653 5651 5650 5648